Tracking 19192 objects as of 21-Jun-2018
HD Live streaming from Space Station
objects crossing your sky now

FENGYUN 1C DEB

Track FENGYUN 1C DEB now!
10-day predictions


NORAD ID: 33721
Int'l Code: 1999-025DHJ
Perigee: 595.7 km
Apogee: 781.8 km
Inclination: 98.8 °
Period: 98.4 minutes
Semi major axis: 7059 km
RCS: 0.0011 m2 (small)
Launch date: May 10, 1999
Source: People's Republic of China (PRC)
Launch site: Taiyaun Space Center, China (TSC)

Note: This is SATELLITE DEBRIS
aabbcc
Your satellite tracking list
Your tracking list is empty




NASA's NSSDC Master Catalog

Two Line Element Set (TLE):
1 33721U 99025DHJ 18171.52546089  .00000510  00000-0  97721-4 0  9994
2 33721  98.7820  82.5130 0131781 270.2645  88.3456 14.63585677577575
Source of the keplerian elements: AFSPC